Location: Mapua
(41.2500°S, 173.1000°E)
Time: 13:31:43
(UTC+12:00)

X-37B - Visible Passes

Search period start: 01 July 2022 00:00
Search period end: 11 July 2022 00:00
Orbit: 328 x 343 km, 45.0° (Epoch: 28 June)

Date Brightness Start Highest point End Pass type
(mag) Time Alt. Az. Time Alt. Az. Time Alt. Az.
03 Jul 2.7 06:50:59 10° NNW 06:53:28 25° NNE 06:55:58 10° E visible
04 Jul 0.9 07:10:51 10° NW 07:13:46 61° NNE 07:16:43 10° ESE visible
05 Jul 2.4 05:58:11 22° N 05:58:54 25° NNE 06:01:23 10° E visible
06 Jul 0.8 06:18:22 39° NW 06:19:13 61° NNE 06:22:08 10° ESE visible
07 Jul 0.4 06:38:20 28° W 06:39:40 64° SSW 06:42:37 10° ESE visible
08 Jul 3.5 05:26:55 15° ESE 05:26:55 15° ESE 05:27:34 10° ESE visible
08 Jul 1.0 06:58:09 16° WSW 07:00:14 41° S 07:03:05 10° ESE visible
09 Jul 2.5 05:46:37 25° ESE 05:46:37 25° ESE 05:48:03 10° ESE visible
09 Jul 1.2 07:18:04 10° WSW 07:20:52 36° S 07:23:40 10° ESE visible
10 Jul 1.5 06:06:15 36° SSE 06:06:15 36° SSE 06:08:31 10° ESE visible
